Deptford, New Jersey, United States
Lat: 39.83N, Lon: 75.13W
Wx Zone: NJZ017
Local Info
Past Weather Observations for Monday, May 18, 2015

NOTE: This archive is for the closest National Weather Service station to Deptford. Information may differ from the station used for current weather conditions.

Click here for Long-term Archive

Time Weather Temperature Dewpoint Humidity Pressure Winds Precip Visibility
23:54
Overcast
Fog And Mist
61°F / 16°C 59°F / 15°C 94% 30.06 in
(1018 mb)
ENE 3.5 mph
(ENE 6 kph)
0.00 in
(0.00 mm)
1 1/2SM
23:11
Overcast
Drizzle
61°F / 16°C 59°F / 15°C 94% 30.09 in
(1019 mb)
ENE 6.9 mph
(ENE 11 kph)
0.00 in
(0.00 mm)
1 1/2SM
22:54
Overcast
Drizzle
61°F / 16°C 59°F / 15°C 94% 30.09 in
(1019 mb)
E 5.8 mph
(E 9 kph)
0.00 in
(0.00 mm)
2SM
22:30
Overcast
Fog And Mist
61°F / 16°C 57°F / 14°C 88% 30.09 in
(1019 mb)
E 5.8 mph
(E 9 kph)
- 2 1/2SM
22:08
Overcast
Fog And Mist
61°F / 16°C 57°F / 14°C 88% 30.09 in
(1019 mb)
NE 8.1 mph
(NE 13 kph)
- 4SM
21:54
Overcast
Fog And Mist
61°F / 16°C 57°F / 14°C 88% 30.09 in
(1019 mb)
ENE 5.8 mph
(ENE 9 kph)
- 5SM
21:18
Overcast
Fog And Mist
61°F / 16°C 57°F / 14°C 88% 30.09 in
(1019 mb)
E 10.4 mph
(E 17 kph)
- 6SM
20:54
Overcast
63°F / 17°C 57°F / 14°C 83% 30.09 in
(1019 mb)
E 11.5 mph
(E 19 kph)
- 8SM
20:31
Overcast
63°F / 17°C 57°F / 14°C 83% 30.12 in
(1020 mb)
ENE 11.5 mph
(ENE 19 kph)
- 7SM
20:09
Overcast
Fog And Mist
63°F / 17°C 59°F / 15°C 88% 30.12 in
(1020 mb)
E 11.5 mph
(E 19 kph)
- 6SM
19:54
Overcast
Fog And Mist
63°F / 17°C 59°F / 15°C 88% 30.12 in
(1020 mb)
E 11.5 mph
(E 19 kph)
- 5SM
19:42
Overcast
Fog And Mist
63°F / 17°C 59°F / 15°C 88% 30.12 in
(1020 mb)
ENE 10.4 mph
(ENE 17 kph)
- 6SM
19:14
Overcast
64°F / 18°C 59°F / 15°C 83% 30.12 in
(1020 mb)
E 11.5 mph
(E 19 kph)
- 8SM
18:54
Overcast
64°F / 18°C 61°F / 16°C 88% 30.12 in
(1020 mb)
ENE 10.4 mph
(ENE 17 kph)
- 8SM
18:28
Overcast
64°F / 18°C 61°F / 16°C 88% 30.09 in
(1019 mb)
E 12.7 mph
(E 20 kph)
- 8SM
17:54
Overcast
66°F / 19°C 61°F / 16°C 83% 30.09 in
(1019 mb)
E 11.5 mph
(E 19 kph)
- 7SM
17:23
Overcast
68°F / 20°C 61°F / 16°C 78% 30.09 in
(1019 mb)
E 11.5 mph
(E 19 kph)
- 9SM
16:54
Overcast
68°F / 20°C 61°F / 16°C 78% 30.09 in
(1019 mb)
E 13.8 mph
(E 22 kph)
- 7SM
16:48
Overcast
70°F / 21°C 61°F / 16°C 73% 30.09 in
(1019 mb)
E 16.1 mph
(E 26 kph)
- 7SM
16:20
Mostly Cloudy
72°F / 22°C 61°F / 16°C 69% 30.09 in
(1019 mb)
ENE 16.1 mph
(ENE 26 kph)
- 8SM
15:54
Mostly Cloudy
72°F / 22°C 61°F / 16°C 69% 30.09 in
(1019 mb)
NE 12.7 mph
(NE 20 kph)
- 10SM
15:37
Mostly Cloudy
73°F / 23°C 63°F / 17°C 69% 30.09 in
(1019 mb)
ENE 12.7 mph
(ENE 20 kph)
- 10SM
14:54
Mostly Cloudy
77°F / 25°C 63°F / 17°C 61% 30.09 in
(1019 mb)
ENE 13.8 mph
(ENE 22 kph)
- 7SM
13:54
Partly Cloudy
81°F / 27°C 64°F / 18°C 58% 30.09 in
(1019 mb)
ENE 12.7 mph
(ENE 20 kph)
- 7SM
13:11
Mostly Cloudy
82°F / 28°C 66°F / 19°C 58% 30.09 in
(1019 mb)
NE 12.7 mph
(NE 20 kph)
- 7SM
12:54
Mostly Cloudy
Hazy
81°F / 27°C 68°F / 20°C 66% 30.09 in
(1019 mb)
ENE 11.5 mph
(ENE 19 kph)
- 6SM
12:17
Mostly Cloudy
Hazy
79°F / 26°C 66°F / 19°C 65% 30.09 in
(1019 mb)
NE 12.7 mph
(NE 20 kph)
- 6SM
11:54
Mostly Cloudy
81°F / 27°C 70°F / 21°C 70% 30.09 in
(1019 mb)
NE 9.2 mph
(NE 15 kph)
0.03 in
(0.76 mm)
10SM
10:54
Partly Cloudy
86°F / 30°C 66°F / 19°C 52% 30.09 in
(1019 mb)
E 6.9 mph
(E 11 kph)
- 10SM
10:09
Partly Cloudy
84°F / 29°C 68°F / 20°C 58% 30.09 in
(1019 mb)
E 4.6 mph
(E 7 kph)
- 10SM
09:54
Partly Cloudy
86°F / 30°C 70°F / 21°C 59% 30.09 in
(1019 mb)
E 5.8 mph
(E 9 kph)
- 9SM
09:49
Partly Cloudy
84°F / 29°C 68°F / 20°C 58% 30.09 in
(1019 mb)
E 6.9 mph
(E 11 kph)
- 9SM
08:54
Partly Cloudy
Hazy
81°F / 27°C 68°F / 20°C 66% 30.12 in
(1020 mb)
Variable 3.5 mph
(Variable 6 kph)
- 6SM
07:54
Partly Cloudy
Hazy
75°F / 24°C 70°F / 21°C 83% 30.12 in
(1020 mb)
SSE 4.6 mph
(SSE 7 kph)
- 6SM
06:54
Mostly Cloudy
Hazy
73°F / 23°C 68°F / 20°C 83% 30.12 in
(1020 mb)
SSE 3.5 mph
(SSE 6 kph)
- 5SM
05:54
Overcast
Fog And Mist
72°F / 22°C 68°F / 20°C 88% 30.12 in
(1020 mb)
Calm - 5SM
04:54
Mostly Cloudy
Fog And Mist
72°F / 22°C 66°F / 19°C 83% 30.09 in
(1019 mb)
Calm - 5SM
04:38
Overcast
Fog And Mist
70°F / 21°C 66°F / 19°C 88% 30.09 in
(1019 mb)
Calm - 5SM
04:02
Overcast
Fog And Mist
70°F / 21°C 66°F / 19°C 88% 30.09 in
(1019 mb)
Calm - 4SM
03:54
Overcast
Fog And Mist
70°F / 21°C 66°F / 19°C 88% 30.09 in
(1019 mb)
E 3.5 mph
(E 6 kph)
- 5SM
02:54
Partly Cloudy
Fog And Mist
70°F / 21°C 66°F / 19°C 88% 30.09 in
(1019 mb)
SSW 4.6 mph
(SSW 7 kph)
- 6SM
02:31
Partly Cloudy
Fog And Mist
72°F / 22°C 66°F / 19°C 83% 30.09 in
(1019 mb)
SSW 3.5 mph
(SSW 6 kph)
- 6SM
01:54
Partly Cloudy
72°F / 22°C 66°F / 19°C 83% 30.12 in
(1020 mb)
SSW 4.6 mph
(SSW 7 kph)
- 7SM
00:54
Partly Cloudy
72°F / 22°C 66°F / 19°C 83% 30.12 in
(1020 mb)
SSW 3.5 mph
(SSW 6 kph)
- 7SM
00:06
Partly Cloudy
72°F / 22°C 66°F / 19°C 83% 30.12 in
(1020 mb)
Calm - 9SM
Time Weather Temperature Dewpoint Humidity Pressure Winds Precip Visibility


Weather for websites

WeatherForYou.com, LLC is not responsible for any damages or problems caused by this service. Current weather conditions are obtained from the closest station including government and personal stations which may have varying degrees of accuracy. Weather forecasts are derived from the NOAA NDFD. Like all things, this site belongs to Jesus Christ... He just trusts us to maintain it. If you have any questions or comments email webmaster@weatherforyou.com

Copyright © 2015, WeatherForYou.com LLC. All rights reserved.